sat.trackr.live / text

‹ back to catalog

STARLINK-11146 [DTC]

NORAD 60729 · 2024-152K

PAYLOAD ACTIVE UNKNOWN

§ Identity

Operator
Country
US
Launch date
2024-08-28
Launch site
AFETR
Launch vehicle
Mass (kg)
RCS (m²)

Purposes: comms

External: N2YO · Heavens-Above · Gunter

§ Orbital elements

Epoch: 2026-09-21T21:25:35.936256Z

Period
91.74 min
Inclination
53.1588°
Eccentricity
0.0000911
Mean motion
15.69706163 rev/d
Perigee alt
359.1 km
Apogee alt
360.4 km
Semi-major
6,737.9 km
B*
1.2908e-5
RAAN
228.8372°
Arg perigee
102.0086°
Mean anomaly
258.1034°
Rev number
11,978

§ Raw data

STARLINK-11146 [DTC]1 60729U 24152K   26264.89277704  .00000975  00000+0  12908-4 0  99962 60729  53.1588 228.8372 0000911 102.0086 258.1034 15.69706163119789

JSON: /api/v1/satellites/60729 · /tle

For live sub-satellite position, see the globe view (requires WebGL).

§ Visibility from observer

Set your observer location to see the next 7 days of passes ≥ 10°. The values pass through the URL so the page stays shareable.

No JS? Fill the form by hand. The geolocation button needs JavaScript.